Location: Waco, TX
(31.5480°N, 97.1670°W)
Time: 03:04:27
(UTC-05:00)

ISS - Pass Details

Date: 20 September 2017
Orbit: 401 x 407 km, 51.6° (Epoch: 22 September)

Event Time Altitude Azimuth Distance (km) Brightness Sun altitude
Rises 23:07:58 0° 261° (W) 2,311 - -44.8°
Reaches altitude 10° 23:10:36 10° 284° (WNW) 1,456 - -45.3°
Maximum altitude 23:12:45 16° 325° (NW) 1,141 - -45.6°
Drops below altitude 10° 23:14:54 10° 6° (N) 1,462 - -46.0°
Sets 23:17:33 0° 29° (NNE) 2,326 - -46.4°
